📊 Raw Sensor Data
Showing records 41051 to 41075 of 84,975 total
| ID | Distance (ft) | Battery V | Battery A | Int Temp (°F) | Int Humid (%) | Ext Temp (°F) | Solar V | RSSI | SNR | Time Stamp |
|---|---|---|---|---|---|---|---|---|---|---|
| 43937 | 15.1 | 3.95 | 0 | 78 | 44 | 78 | 5.10 | -71 | 8 | 06/19/2025 11:30 AM |
| 43936 | 15.2 | 4.12 | 0 | 78 | 43 | 78 | 5.10 | -70 | 7 | 06/19/2025 11:15 AM |
| 43935 | 15.1 | 3.95 | 0 | 77 | 43 | 80 | 5.10 | -73 | 6 | 06/19/2025 11:00 AM |
| 43934 | 15.1 | 3.95 | 0 | 76 | 43 | 78 | 5.10 | -72 | 7 | 06/19/2025 10:45 AM |
| 43933 | 15.2 | 3.95 | 0 | 75 | 43 | 77 | 5.10 | -71 | 7 | 06/19/2025 10:30 AM |
| 43932 | 15.2 | 4.07 | 0 | 74 | 43 | 76 | 5.10 | -71 | 7 | 06/19/2025 10:15 AM |
| 43931 | 15.2 | 3.95 | 0 | 73 | 44 | 76 | 5.10 | -72 | 8 | 06/19/2025 10:00 AM |
| 43930 | 15.2 | 3.95 | 0 | 73 | 44 | 74 | 5.10 | -72 | 7 | 06/19/2025 09:45 AM |
| 43929 | 15.2 | 3.95 | 0 | 73 | 44 | 74 | 5.10 | -72 | 8 | 06/19/2025 09:30 AM |
| 43928 | 15.2 | 4.12 | 0 | 72 | 44 | 75 | 5.10 | -72 | 8 | 06/19/2025 09:15 AM |
| 43927 | 15.2 | 3.95 | 0 | 71 | 44 | 74 | 5.10 | -72 | 7 | 06/19/2025 09:00 AM |
| 43926 | 15.2 | 3.95 | 0 | 69 | 44 | 75 | 5.10 | -72 | 7 | 06/19/2025 08:45 AM |
| 43925 | 15.2 | 4.01 | 0 | 68 | 44 | 72 | 5.10 | -71 | 8 | 06/19/2025 08:30 AM |
| 43924 | 15.2 | 3.95 | 0 | 67 | 44 | 71 | 5.10 | -71 | 8 | 06/19/2025 08:15 AM |
| 43923 | 15.2 | 3.95 | 0 | 66 | 44 | 70 | 5.10 | -72 | 8 | 06/19/2025 08:00 AM |
| 43922 | 15.2 | 3.95 | 0 | 66 | 44 | 69 | 5.10 | -70 | 7 | 06/19/2025 07:45 AM |
| 43921 | 15.2 | 4.12 | 0 | 65 | 43 | 69 | 5.10 | -72 | 7 | 06/19/2025 07:30 AM |
| 43920 | 15.2 | 3.97 | 0 | 63 | 43 | 68 | 4.50 | -72 | 7 | 06/19/2025 07:15 AM |
| 43919 | 15.1 | 4.00 | 9 | 62 | 42 | 67 | 4.50 | -71 | 7 | 06/19/2025 07:00 AM |
| 43918 | 15.1 | 3.98 | 0 | 61 | 42 | 65 | 4.50 | -71 | 8 | 06/19/2025 06:45 AM |
| 43917 | 15.1 | 3.85 | 0 | 59 | 42 | 64 | 4.50 | -70 | 8 | 06/19/2025 06:30 AM |
| 43916 | 15.0 | 3.83 | 0 | 57 | 42 | 62 | 4.50 | -71 | 7 | 06/19/2025 06:15 AM |
| 43915 | 15.0 | 3.82 | -6 | 55 | 43 | 58 | 4.50 | -71 | 8 | 06/19/2025 06:00 AM |
| 43914 | 15.0 | 3.81 | -10 | 54 | 43 | 56 | 4.20 | -69 | 7 | 06/19/2025 05:45 AM |
| 43913 | 15.0 | 3.94 | -5 | 54 | 43 | 56 | 0.80 | -71 | 8 | 06/19/2025 05:30 AM |